DL2GKM-6 Weather Reports


Display with metric or nautical units.
time (UTC)temp
F
wind
direction
speed
MPH
gust
MPH
rain 1hr
in
rain 24hr
in
rain mn
in
humidity
%
barometer
mb
20260506184701 52 114 0.0 0.0 0.00 5.07 0.04 89 1007.9
20260506184216 52 181 6.0 4.0 0.00 5.07 0.04 89 1007.8
20260506183806 52 217 3.0 3.0 0.00 5.07 0.04 90 1007.8
20260506183401 51 116 4.0 0.0 0.00 5.07 0.04 90 1007.8
20260506182946 51 154 0.0 1.0 0.00 5.07 0.04 90 1007.7
20260506182528 51 353 3.0 0.0 0.00 5.07 0.04 90 1007.7
20260506182101 51 216 1.0 0.0 0.00 5.07 0.04 90 1007.6
20260506181628 52 232 0.0 9.0 0.00 5.07 0.04 90 1007.6
20260506181131 52 215 4.0 12.0 0.00 5.07 0.04 90 1007.6
20260506180721 52 103 0.0 0.0 0.00 5.07 0.04 90 1007.6
20260506180241 52 271 0.0 1.0 0.00 5.07 0.04 90 1007.6
20260506175818 52 182 5.0 4.0 0.00 5.07 0.04 91 1007.6
20260506175328 52 179 0.0 3.0 0.00 5.07 0.04 91 1007.6
20260506174841 52 8 6.0 0.0 0.00 5.07 0.04 91 1007.4
20260506174408 52 151 0.0 0.0 0.00 5.07 0.04 91 1007.4
20260506174006 52 151 0.0 0.0 0.00 5.07 0.04 91 1007.3
20260506173548 52 151 0.0 0.0 0.00 5.07 0.04 91 1007.3
20260506173106 52 151 0.0 0.0 0.00 5.07 0.04 92 1007.2
20260506172608 52 62 7.0 0.0 0.00 5.07 0.04 92 1007.2
20260506172116 52 158 4.0 0.0 0.00 5.07 0.04 92 1007.3
20260506171656 52 69 0.0 0.0 0.00 5.07 0.04 92 1007.2
20260506171208 52 69 0.0 0.0 0.00 5.07 0.03 92 1007.1
20260506170806 52 69 0.0 0.0 0.00 5.07 0.03 92 1007.1
20260506170321 52 69 0.0 0.0 0.00 5.07 0.03 92 1007.1
20260506165906 52 69 0.0 0.0 0.00 5.07 0.03 92 1007.1
20260506165441 52 69 3.0 0.0 0.00 5.07 0.03 92 1007.2
20260506165016 52 294 0.0 0.0 0.00 5.07 0.03 92 1007.2
20260506164611 52 217 1.0 0.0 0.00 5.07 0.03 92 1007.2
20260506164136 52 13 5.0 6.0 0.00 5.07 0.03 92 1007.2
20260506163736 52 289 5.0 7.0 0.00 5.07 0.03 91 1007.2
20260506163252 52 0 3.0 7.0 0.00 5.07 0.03 91 1007.1
20260506162811 52 13 4.0 6.0 0.00 5.07 0.03 91 1006.9
20260506162408 52 335 9.0 7.0 0.00 5.07 0.03 91 1006.9
20260506161956 53 14 9.0 3.0 0.00 5.07 0.03 91 1006.9
20260506161501 53 360 6.0 5.0 0.00 5.07 0.03 91 1006.8
20260506161040 53 254 8.0 5.0 0.00 5.07 0.03 90 1006.8
20260506160628 53 61 11.0 12.0 0.00 5.07 0.03 90 1006.8
20260506160221 53 344 3.0 0.0 0.00 5.07 0.03 90 1006.7
20260506155746 54 311 5.0 3.0 0.00 5.07 0.03 90 1006.8
20260506155326 54 326 5.0 1.0 0.00 5.07 0.03 90 1006.7
20260506154911 54 92 8.0 3.0 0.00 5.07 0.03 90 1006.7
20260506154421 54 346 6.0 5.0 0.00 5.07 0.03 90 1006.7
20260506154016 54 28 5.0 4.0 0.00 5.07 0.03 90 1006.6
20260506153606 54 306 1.0 4.0 0.00 5.07 0.03 89 1006.6
20260506153201 54 311 0.0 1.0 0.00 5.07 0.03 89 1006.6
20260506152716 54 287 4.0 3.0 0.00 5.07 0.03 89 1006.6
20260506152216 54 200 6.0 2.0 0.00 5.07 0.03 88 1006.6
20260506151801 55 265 4.0 2.0 0.00 5.07 0.03 88 1006.6
20260506151306 55 126 0.0 0.0 0.00 5.07 0.03 89 1006.5
20260506150816 54 126 0.0 0.0 0.00 5.07 0.03 89 1006.5
20260506150408 54 126 1.0 0.0 0.00 5.07 0.03 89 1006.5
20260506145956 54 174 0.0 0.0 0.00 5.07 0.03 89 1006.5
20260506145541 54 174 0.0 0.0 0.00 5.07 0.03 89 1006.5
20260506145106 54 174 0.0 0.0 0.00 5.07 0.03 89 1006.4
20260506144611 54 174 0.0 0.0 0.00 5.07 0.03 89 1006.3
20260506144206 54 174 0.0 0.0 0.00 5.07 0.03 88 1006.4
20260506143741 55 174 0.0 0.0 0.00 5.07 0.03 88 1006.3
20260506143328 55 174 0.0 0.0 0.00 5.07 0.03 87 1006.3
20260506142828 54 174 0.0 0.0 0.00 5.07 0.02 86 1006.2
20260506142333 54 174 0.0 0.0 0.00 5.07 0.02 86 1006.1
20260506141936 54 174 0.0 0.0 0.00 5.07 0.02 86 1006.1
20260506141521 54 277 1.0 2.0 0.00 5.07 0.02 85 1006.1
20260506141036 55 175 0.0 0.0 0.00 5.07 0.02 85 1006.2
20260506140611 55 258 1.0 6.0 0.00 5.07 0.02 85 1006.1
20260506140121 55 11 2.0 0.0 0.00 5.07 0.02 85 1006.0
20260506135634 55 343 1.0 3.0 0.00 5.07 0.02 85 1006.0
20260506135221 56 172 0.0 0.0 0.00 5.07 0.02 85 1006.0
20260506134811 55 172 0.0 1.0 0.00 5.07 0.02 85 1006.0
20260506134348 55 127 0.0 0.0 0.00 5.07 0.02 84 1006.0
20260506133906 56 137 0.0 3.0 0.00 5.07 0.02 84 1005.9
20260506133426 56 200 0.0 0.0 0.00 5.07 0.02 83 1006.0
20260506132956 56 200 0.0 0.0 0.00 5.07 0.02 83 1006.0
20260506132518 56 213 0.0 0.0 0.00 5.07 0.02 82 1005.9
20260506132031 56 213 0.0 0.0 0.00 5.07 0.02 80 1005.7
20260506131616 57 213 0.0 0.0 0.00 5.07 0.02 78 1005.7
20260506131156 57 213 0.0 0.0 0.00 5.07 0.02 77 1005.7
20260506130701 58 213 0.0 0.0 0.00 5.07 0.02 76 1005.6
20260506130248 58 213 0.0 0.0 0.00 5.07 0.02 76 1005.6
20260506125836 58 189 2.0 3.0 0.00 5.07 0.02 76 1005.6
20260506125346 59 196 5.0 2.0 0.00 5.07 0.02 75 1005.5
20260506124921 59 244 6.0 4.0 0.00 5.07 0.02 74 1005.4
20260506124516 59 275 0.0 0.0 0.00 5.07 0.01 74 1005.3
20260506124051 59 275 0.0 0.0 0.00 5.07 0.01 76 1005.3
20260506123616 59 275 0.0 0.0 0.00 5.07 0.01 77 1005.3
20260506123141 59 275 0.0 0.0 0.00 5.07 0.01 77 1005.3
20260506122736 59 275 0.0 0.0 0.00 5.07 0.01 79 1005.3
20260506122316 58 275 0.0 0.0 0.00 5.07 0.01 80 1005.3
20260506121816 58 275 0.0 0.0 0.00 5.07 0.01 80 1005.3
20260506121346 58 275 0.0 0.0 0.00 5.07 0.01 81 1005.3
20260506120913 58 304 3.0 4.0 0.00 5.07 0.01 84 1005.3
20260506120426 58 263 2.0 0.0 0.00 5.07 0.01 84 1005.3
20260506115931 57 323 2.0 1.0 0.00 5.07 0.01 84 1005.3
20260506115506 57 359 2.0 6.0 0.00 5.07 0.01 83 1005.3
20260506115021 57 95 0.0 0.0 0.00 5.07 0.01 83 1005.3
20260506114616 57 95 0.0 0.0 0.00 5.07 0.01 83 1005.4
20260506114126 57 95 1.0 0.0 0.00 5.07 0.01 83 1005.3
20260506113638 57 112 5.0 4.0 0.00 5.07 0.01 83 1005.4
20260506113211 57 292 0.0 0.0 0.00 5.07 0.01 84 1005.4
20260506112746 57 316 6.0 5.0 0.00 5.07 0.01 83 1005.4
20260506112248 57 325 3.0 4.0 0.00 5.07 0.01 82 1005.5
20260506111828 57 124 3.0 2.0 0.00 5.07 0.01 81 1005.6
20260506111408 57 119 3.0 0.0 0.00 5.07 0.01 80 1005.6
20260506111001 57 134 6.0 5.0 0.00 5.07 0.01 81 1005.6
20260506110526 58 137 0.0 0.0 0.00 5.07 0.01 80 1005.6
20260506110026 58 131 3.0 3.0 0.00 5.07 0.00 78 1005.6
20260506105616 58 136 4.0 1.0 0.00 5.07 0.00 77 1005.5
20260506105216 59 134 3.0 2.0 0.00 5.07 0.00 75 1005.4
20260506104756 59 114 3.0 7.0 0.00 5.07 0.00 73 1005.4
20260506104356 60 32 2.0 0.0 0.00 5.07 0.00 73 1005.5
20260506103916 60 58 4.0 1.0 0.00 5.07 0.00 70 1005.5
20260506103431 61 72 4.0 1.0 0.00 5.07 0.00 64 1005.5
20260506103016 61 69 1.0 6.0 0.00 5.07 0.00 62 1005.6
20260506102528 62 16 1.0 0.0 0.00 5.07 0.00 62 1005.5
20260506102041 62 353 6.0 7.0 0.00 5.07 0.00 61 1005.6
20260506101626 62 333 5.0 7.0 0.00 5.07 0.00 61 1005.6
20260506101208 62 344 5.0 3.0 0.00 5.07 0.00 61 1005.6
20260506100726 62 280 6.0 2.0 0.00 5.07 0.00 60 1005.7
20260506100246 62 320 6.0 0.0 0.00 5.07 0.00 59 1005.7
20260506095808 62 316 2.0 2.0 0.00 5.07 0.00 57 1005.7
20260506095308 62 55 4.0 6.0 0.00 5.07 0.00 56 1005.8
20260506094856 62 311 1.0 2.0 0.00 5.07 0.00 57 1005.8
20260506094356 62 308 2.0 6.0 0.00 5.07 0.00 56 1005.7
20260506093916 62 323 2.0 1.0 0.00 5.07 0.00 55 1005.8
20260506093416 62 330 0.0 1.0 0.00 5.07 0.00 56 1005.8
20260506092919 62 11 1.0 7.0 0.00 5.07 0.00 58 1005.8
20260506092446 62 253 0.0 0.0 0.00 5.07 0.00 58 1005.8
20260506091946 61 329 0.0 4.0 0.00 5.07 0.00 58 1005.8
20260506091526 62 21 2.0 7.0 0.00 5.07 0.00 58 1005.8
20260506091108 61 27 3.0 0.0 0.00 5.07 0.00 61 1005.8
20260506090648 61 360 0.0 0.0 0.00 5.07 0.00 61 1005.9
20260506090246 61 360 0.0 0.0 0.00 5.07 0.00 62 1005.8
20260506085846 60 78 2.0 2.0 0.00 5.07 0.00 64 1005.8
20260506085441 60 160 4.0 2.0 0.00 5.07 0.00 66 1005.8
20260506085036 60 99 0.0 0.0 0.00 5.07 0.00 67 1005.8
20260506084616 59 99 0.0 0.0 0.00 5.07 0.00 69 1005.8
20260506084148 59 99 0.0 0.0 0.00 5.07 0.00 69 1005.8
20260506083711 58 110 1.0 0.0 0.00 5.07 0.00 69 1005.8
20260506083256 58 8 2.0 1.0 0.00 5.07 0.00 70 1005.8
20260506082756 58 38 3.0 1.0 0.00 5.07 0.00 69 1005.8
20260506082346 58 23 0.0 0.0 0.00 5.07 0.00 69 1005.9
20260506081846 58 6 5.0 2.0 0.00 5.07 0.00 70 1005.9
20260506081356 59 68 2.0 6.0 0.00 5.07 0.00 69 1005.9
20260506080929 59 6 5.0 4.0 0.00 5.07 0.00 69 1005.9
20260506080451 59 11 1.0 5.0 0.00 5.07 0.00 69 1005.9
20260506073156 57 95 0.0 0.0 0.00 5.07 0.00 74 1006.0
20260506072719 56 95 0.0 0.0 0.00 5.07 0.00 75 1005.9
20260506062336 52 151 4.0 5.0 0.00 5.07 0.00 81 1006.0
20260506061926 52 126 0.0 0.0 0.00 5.07 0.00 81 1005.9
20260506061426 52 184 4.0 3.0 0.00 5.07 0.00 81 1006.0
20260506061021 52 144 6.0 4.0 0.00 5.07 0.00 81 1006.0
20260506060606 51 151 4.0 4.0 0.00 5.07 0.00 81 1006.0
20260506060146 51 152 4.0 0.0 0.00 5.07 0.00 81 1006.1
20260506051212 50 144 8.0 9.0 0.00 5.07 0.00 82 1006.3
20260506050754 50 145 4.0 9.0 0.00 5.07 0.00 82 1006.3
20260506050351 50 138 4.0 5.0 0.00 5.07 0.00 82 1006.4
20260506045037 50 165 7.0 10.0 0.00 5.07 0.00 83 1006.5
20260506044631 50 137 7.0 7.0 0.00 5.07 0.00 83 1006.5
20260506044201 50 198 8.0 9.0 0.00 5.07 0.00 83 1006.4
20260506043721 50 191 7.0 7.0 0.00 5.07 0.00 82 1006.4
20260506043234 50 144 8.0 8.0 0.00 5.07 0.00 82 1006.4
20260506042811 50 176 6.0 6.0 0.00 5.07 0.00 82 1006.3
20260506042334 50 160 4.0 3.0 0.00 5.07 0.00 82 1006.3
20260506041911 50 171 4.0 4.0 0.00 5.07 0.00 82 1006.3
20260506041421 50 151 0.0 5.0 0.00 5.07 0.00 82 1006.2
20260506040926 50 191 0.0 0.0 0.00 5.07 0.00 82 1006.3
20260506040434 50 164 0.0 0.0 0.00 5.07 0.00 82 1006.2
20260506040001 50 164 0.0 0.0 0.00 5.07 0.00 82 1006.1
20260506035514 50 120 4.0 4.0 0.00 5.07 0.00 82 1006.2
20260506035041 50 140 0.0 0.0 0.00 5.07 0.00 82 1006.2
20260506034551 50 140 0.0 0.0 0.00 5.07 0.00 82 1006.3
20260506034116 50 140 0.0 0.0 0.00 5.07 0.00 82 1006.4
20260506033711 50 140 0.0 0.0 0.00 5.07 0.00 82 1006.3
20260506033311 50 140 0.0 0.0 0.00 5.07 0.00 82 1006.4
20260506032854 50 138 4.0 4.0 0.00 5.07 0.00 82 1006.5
20260506032416 50 126 0.0 0.0 0.00 5.07 0.00 82 1006.6
20260506031946 50 126 0.0 0.0 0.00 5.07 0.00 82 1006.6
20260506031516 50 126 2.0 0.0 0.00 5.07 0.00 83 1006.6
20260506031111 50 88 0.0 0.0 0.00 5.07 0.00 83 1006.7
20260506030621 50 144 2.0 5.0 0.00 5.07 0.00 83 1006.7
20260506030136 50 175 1.0 0.0 0.00 5.07 0.00 83 1006.7
20260506025721 50 97 0.0 0.0 0.00 5.07 0.00 83 1006.7
20260506025321 50 97 0.0 0.0 0.00 5.07 0.00 83 1006.7
20260506024906 50 150 5.0 0.0 0.00 5.07 0.00 83 1006.6
20260506024424 50 192 2.0 0.0 0.00 5.07 0.00 83 1006.6
20260506024001 50 147 4.0 5.0 0.00 5.07 0.00 83 1006.6
20260506023531 50 179 8.0 6.0 0.00 5.07 0.00 83 1006.6
20260506023045 50 157 6.0 6.0 0.00 5.07 0.00 83 1006.7
20260506022646 50 175 5.0 7.0 0.00 5.07 0.00 82 1006.6
20260506022234 50 193 0.0 0.0 0.00 5.07 0.00 82 1006.6
20260506021831 50 193 0.0 0.0 0.00 5.07 0.00 82 1006.7
20260506021414 50 193 0.0 0.0 0.00 5.07 0.00 82 1006.7
20260506020921 50 193 0.0 0.0 0.00 5.07 0.00 82 1006.7
20260506020521 50 193 0.0 0.0 0.00 5.07 0.00 82 1006.8
20260506020036 50 193 0.0 0.0 0.00 5.07 0.00 82 1006.9
20260506015626 50 196 0.0 0.0 0.00 5.07 0.00 82 1006.9
20260506015219 50 196 0.0 0.0 0.00 5.07 0.00 82 1007.1
20260506014731 50 227 0.0 0.0 0.00 5.07 0.00 83 1007.1
20260506014258 50 152 2.0 6.0 0.00 5.07 0.00 83 1007.2
20260506013801 50 134 0.0 0.0 0.00 5.07 0.00 83 1007.2
20260506013351 50 134 0.0 0.0 0.00 5.07 0.00 83 1007.2
20260506012919 50 134 2.0 0.0 0.00 5.07 0.00 83 1007.2
20260506012451 50 179 0.0 0.0 0.00 5.07 0.00 83 1007.2
20260506012016 50 179 0.0 0.0 0.00 5.07 0.00 83 1007.2
20260506011546 50 179 0.0 0.0 0.00 5.07 0.00 83 1007.1
20260506011139 50 179 0.0 0.0 0.00 5.07 0.00 83 1007.2
20260506010711 50 179 0.0 0.0 0.00 5.07 0.00 83 1007.2
20260506010301 50 179 0.0 0.0 0.00 5.07 0.00 83 1007.1
20260506005856 50 179 0.0 0.0 0.00 5.07 0.00 83 1007.1
20260506005421 50 179 0.0 0.0 0.00 5.07 0.00 83 1006.9
20260506005001 50 179 0.0 0.0 0.00 5.07 0.00 83 1006.8
20260506004554 50 179 3.0 0.0 0.00 5.07 0.00 83 1006.9
20260506004111 50 161 0.0 0.0 0.00 5.07 0.00 83 1006.9
20260506003654 50 145 4.0 4.0 0.00 5.07 0.00 83 1007.1
20260506003212 51 147 2.0 6.0 0.00 5.07 0.00 83 1007.2
20260506002814 51 165 4.0 6.0 0.00 5.07 0.00 83 1007.2
20260506002406 51 164 3.0 3.0 0.00 5.07 0.00 83 1007.3
20260506001934 51 185 0.0 0.0 0.00 5.07 0.00 83 1007.3
20260506001439 51 185 2.0 0.0 0.00 5.07 0.00 82 1007.4
20260506000946 51 176 0.0 0.0 0.00 5.07 0.00 82 1007.5
20260506000526 51 200 3.0 2.0 0.00 5.07 0.00 82 1007.5
20260506000041 51 179 0.0 0.0 0.00 5.07 0.00 82 1007.6
20260505235621 51 179 0.0 0.0 0.00 5.07 0.00 82 1007.6
20260505235141 51 179 0.0 0.0 0.00 5.07 0.00 82 1007.6
20260505234651 51 179 0.0 0.0 0.00 5.07 0.00 83 1007.7
20260505234206 51 179 0.0 0.0 0.00 5.07 0.00 83 1007.7
20260505233706 51 179 0.0 0.0 0.00 5.07 0.00 83 1007.7
20260505233234 51 179 0.0 0.0 0.00 5.07 0.00 83 1007.7
20260505232811 51 179 0.0 0.0 0.00 5.07 0.00 83 1007.8
20260505232314 51 157 0.0 5.0 0.00 5.07 0.00 83 1007.9
20260505231834 51 116 3.0 0.0 0.00 5.07 0.00 83 1007.8
20260505231416 51 193 5.0 7.0 0.00 5.07 0.00 83 1007.8
20260505231011 51 158 7.0 7.0 0.00 5.07 0.00 83 1007.8
20260505230536 51 185 6.0 6.0 0.00 5.07 0.00 83 1007.8
20260505230051 51 169 0.0 0.0 0.00 5.07 0.00 83 1007.8
20260505225554 51 169 3.0 1.0 0.00 5.07 0.11 83 1007.9
20260505225054 51 151 5.0 6.0 0.00 5.07 0.11 83 1007.9
20260505224624 52 171 4.0 4.0 0.00 5.07 0.11 83 1007.9
20260505224141 52 182 6.0 3.0 0.00 5.07 0.11 83 1007.8
20260505223651 52 160 4.0 4.0 0.00 5.07 0.11 83 1007.8
20260505223241 52 172 6.0 4.0 0.00 5.07 0.11 83 1007.8
20260505222741 52 152 6.0 0.0 0.00 5.07 0.11 83 1007.8
20260505222334 52 140 7.0 15.0 0.00 5.07 0.11 83 1007.7
20260505221934 52 172 9.0 8.0 0.00 5.07 0.11 83 1007.8
20260505221501 52 227 4.0 8.0 0.00 5.07 0.11 83 1007.8
20260505221046 52 241 9.0 9.0 0.00 5.07 0.11 83 1007.8
20260505220626 52 138 7.0 6.0 0.00 5.07 0.10 82 1007.8
20260505220154 52 152 2.0 0.0 0.00 5.07 0.10 82 1007.8
20260505215750 53 151 0.0 6.0 0.00 5.07 0.10 82 1007.8
20260505215334 53 138 8.0 11.0 0.00 5.07 0.10 82 1007.8
20260505214857 53 148 8.0 8.0 0.00 5.07 0.10 82 1007.9
20260505214421 53 148 7.0 10.0 0.00 5.07 0.10 82 1007.9
20260505213946 53 144 8.0 7.0 0.00 5.07 0.10 82 1008.0
20260505213501 53 140 8.0 10.0 0.00 5.07 0.10 82 1008.0
20260505213026 53 185 5.0 6.0 0.00 5.07 0.10 82 1007.9
20260505212552 53 178 7.0 6.0 0.00 5.07 0.10 82 1007.9
20260505212151 53 152 5.0 5.0 0.00 5.07 0.10 82 1007.9
20260505211651 53 131 6.0 7.0 0.00 5.07 0.10 82 1007.9
20260505211234 53 131 5.0 5.0 0.00 5.07 0.10 82 1007.9
20260505210831 53 182 4.0 0.0 0.00 5.07 0.10 82 1008.0
20260505210411 53 148 3.0 7.0 0.00 5.07 0.10 82 1007.9
20260505210006 54 137 4.0 0.0 0.00 5.07 0.10 82 1007.9
20260505205511 54 158 6.0 4.0 0.00 5.07 0.10 82 1007.9
20260505205011 54 152 3.0 8.0 0.00 5.07 0.10 81 1007.9
20260505204554 54 133 6.0 4.0 0.00 5.07 0.10 81 1007.9
20260505204151 54 172 6.0 8.0 0.00 5.07 0.10 81 1007.8
20260505203751 54 160 0.0 0.0 0.00 5.07 0.09 81 1007.8
20260505203316 54 222 4.0 5.0 0.00 5.07 0.09 80 1007.7
20260505202911 55 161 8.0 4.0 0.00 5.07 0.09 80 1007.7
20260505202411 55 141 5.0 7.0 0.00 5.07 0.09 80 1007.7
20260505201926 55 172 1.0 7.0 0.00 5.07 0.09 80 1007.6
20260505201440 55 171 1.0 4.0 0.00 5.07 0.09 79 1007.5
20260505201031 55 136 7.0 3.0 0.00 5.07 0.09 79 1007.4
20260505200541 55 147 5.0 5.0 0.00 5.07 0.09 79 1007.4
20260505200114 55 224 0.0 7.0 0.00 5.07 0.09 79 1007.4
20260505195634 55 181 6.0 0.0 0.00 5.07 0.09 79 1007.3
20260505195156 55 131 5.0 3.0 0.00 5.07 0.09 80 1007.3
20260505194714 56 136 8.0 1.0 0.00 5.07 0.09 80 1007.3
20260505194214 56 179 8.0 3.0 0.00 5.07 0.08 80 1007.3
20260505193746 56 158 7.0 9.0 0.00 5.07 0.08 80 1007.3
20260505193246 56 182 0.0 0.0 0.00 5.07 0.08 81 1007.3
20260505192801 56 133 0.0 0.0 0.00 5.07 0.08 81 1007.4
20260505192326 56 151 7.0 0.0 0.00 5.07 0.08 82 1007.4
20260505191914 56 175 4.0 0.0 0.00 5.07 0.08 83 1007.3
20260505191506 56 200 7.0 6.0 0.00 5.07 0.08 83 1007.3
20260505191021 56 106 6.0 3.0 0.00 5.07 0.08 83 1007.2
20260505190554 56 176 9.0 6.0 0.00 5.07 0.08 83 1007.1
20260505185634 56 165 5.0 8.0 0.00 5.07 0.08 84 1007.2
20260505185141 56 210 0.0 0.0 0.00 5.07 0.08 84 1007.1